Time,TemperatureF,DewpointF,PressureIn,WindDirection,WindDirectionDegrees,WindSpeedMPH,WindSpeedGustMPH,Humidity,HourlyPrecipIn,Conditions,Clouds,dailyrainin,SolarRadiationWatts/m^2,SoftwareType,DateUTC
2013-08-21 00:14:00,78.2,73.0,29.97,ENE,77,7.0,12.0,84,0.00,,,0.00,0,weatherlink.com 1.10,2013-08-21 10:14:00,
2013-08-21 00:29:00,77.8,73.0,29.96,East,101,5.0,14.0,85,0.00,,,0.00,0,weatherlink.com 1.10,2013-08-21 10:29:00,
2013-08-21 00:44:00,77.3,73.0,29.96,SE,134,10.0,11.0,86,0.00,,,0.00,0,weatherlink.com 1.10,2013-08-21 10:44:00,
2013-08-21 01:00:00,76.8,73.0,29.96,ESE,108,9.0,11.0,88,0.01,,,0.01,0,weatherlink.com 1.10,2013-08-21 11:00:00,
2013-08-21 01:15:00,76.6,73.0,29.96,SE,135,3.0,11.0,88,0.01,,,0.01,0,weatherlink.com 1.10,2013-08-21 11:15:00,
2013-08-21 01:31:00,76.4,73.0,29.95,East,95,4.0,9.0,89,0.02,,,0.02,0,weatherlink.com 1.10,2013-08-21 11:31:00,
2013-08-21 01:44:00,76.3,73.0,29.95,East,86,6.0,9.0,89,0.02,,,0.02,0,weatherlink.com 1.10,2013-08-21 11:44:00,
2013-08-21 02:00:00,76.1,73.0,29.94,ESE,114,4.0,8.0,89,0.01,,,0.02,0,weatherlink.com 1.10,2013-08-21 12:00:00,
2013-08-21 02:15:00,76.2,73.0,29.94,SE,124,6.0,7.0,89,0.01,,,0.02,0,weatherlink.com 1.10,2013-08-21 12:15:00,
2013-08-21 02:30:00,75.8,73.0,29.94,NW,319,3.0,7.0,91,0.00,,,0.02,0,weatherlink.com 1.10,2013-08-21 12:30:00,
2013-08-21 02:45:00,74.2,72.0,29.94,West,259,6.0,10.0,91,0.00,,,0.02,0,weatherlink.com 1.10,2013-08-21 12:45:00,
2013-08-21 03:01:00,74.0,71.0,29.93,WSW,237,4.0,10.0,91,0.00,,,0.02,0,weatherlink.com 1.10,2013-08-21 13:01:00,
2013-08-21 03:15:00,73.7,71.0,29.93,WNW,298,3.0,10.0,91,0.00,,,0.02,0,weatherlink.com 1.10,2013-08-21 13:15:00,
2013-08-21 03:33:00,73.2,71.0,29.93,West,269,0.0,8.0,92,0.04,,,0.06,0,weatherlink.com 1.10,2013-08-21 13:33:00,
2013-08-21 03:46:00,72.8,71.0,29.93,West,262,3.0,7.0,94,0.11,,,0.13,0,weatherlink.com 1.10,2013-08-21 13:46:00,
2013-08-21 04:01:00,72.6,71.0,29.92,West,265,4.0,9.0,95,0.12,,,0.14,0,weatherlink.com 1.10,2013-08-21 14:01:00,
2013-08-21 04:16:00,72.6,71.0,29.92,WSW,255,4.0,6.0,95,0.12,,,0.14,0,weatherlink.com 1.10,2013-08-21 14:16:00,
2013-08-21 04:31:00,72.6,71.0,29.93,WSW,241,3.0,8.0,96,0.08,,,0.14,0,weatherlink.com 1.10,2013-08-21 14:31:00,
2013-08-21 04:46:00,72.5,71.0,29.93,West,261,3.0,6.0,96,0.01,,,0.14,0,weatherlink.com 1.10,2013-08-21 14:46:00,
2013-08-21 05:01:00,72.3,71.0,29.93,WSW,257,4.0,7.0,96,0.01,,,0.15,0,weatherlink.com 1.10,2013-08-21 15:01:00,
2013-08-21 05:16:00,72.2,71.0,29.93,WSW,249,1.0,8.0,96,0.01,,,0.15,0,weatherlink.com 1.10,2013-08-21 15:16:00,
2013-08-21 05:31:00,72.3,71.0,29.93,WSW,254,5.0,7.0,96,0.01,,,0.15,0,weatherlink.com 1.10,2013-08-21 15:31:00,
2013-08-21 05:46:00,72.5,71.0,29.93,West,259,4.0,7.0,95,0.01,,,0.15,0,weatherlink.com 1.10,2013-08-21 15:46:00,
2013-08-21 06:01:00,72.8,71.0,29.94,WSW,247,3.0,6.0,94,0.00,,,0.15,0,weatherlink.com 1.10,2013-08-21 16:01:00,
2013-08-21 06:16:00,73.1,71.0,29.94,West,261,4.0,6.0,94,0.00,,,0.15,5,weatherlink.com 1.10,2013-08-21 16:16:00,
2013-08-21 06:31:00,73.3,71.0,29.94,WSW,258,4.0,7.0,93,0.00,,,0.15,18,weatherlink.com 1.10,2013-08-21 16:31:00,
2013-08-21 06:48:00,73.7,71.0,29.95,West,259,5.0,6.0,92,0.00,,,0.15,30,weatherlink.com 1.10,2013-08-21 16:48:00,
2013-08-21 07:03:00,74.0,71.0,29.95,WSW,256,5.0,6.0,91,0.00,,,0.15,46,weatherlink.com 1.10,2013-08-21 17:03:00,
2013-08-21 07:18:00,74.3,72.0,29.96,West,259,2.0,6.0,92,0.00,,,0.15,72,weatherlink.com 1.10,2013-08-21 17:18:00,
2013-08-21 07:33:00,74.9,73.0,29.96,WSW,258,2.0,5.0,92,0.00,,,0.15,120,weatherlink.com 1.10,2013-08-21 17:33:00,
2013-08-21 07:48:00,75.8,73.0,29.96,West,262,1.0,4.0,91,0.00,,,0.15,167,weatherlink.com 1.10,2013-08-21 17:48:00,
2013-08-21 08:03:00,76.9,73.0,29.96,WSW,241,2.0,5.0,88,0.00,,,0.15,424,weatherlink.com 1.10,2013-08-21 18:03:00,
2013-08-21 08:18:00,78.7,74.0,29.96,WSW,255,0.0,3.0,85,0.00,,,0.15,404,weatherlink.com 1.10,2013-08-21 18:18:00,
2013-08-21 08:33:00,79.3,74.0,29.97,WSW,255,0.0,2.0,84,0.00,,,0.15,448,weatherlink.com 1.10,2013-08-21 18:33:00,
2013-08-21 08:48:00,79.6,73.0,29.97,NNE,17,0.0,4.0,81,0.00,,,0.15,504,weatherlink.com 1.10,2013-08-21 18:48:00,
2013-08-21 09:03:00,80.7,74.0,29.98,NNE,16,2.0,4.0,80,0.00,,,0.15,374,weatherlink.com 1.10,2013-08-21 19:03:00,
2013-08-21 09:18:00,81.6,76.0,29.98,NNE,20,2.0,5.0,82,0.00,,,0.15,724,weatherlink.com 1.10,2013-08-21 19:18:00,
2013-08-21 09:33:00,80.7,74.0,29.98,North,2,4.0,6.0,80,0.00,,,0.15,260,weatherlink.com 1.10,2013-08-21 19:33:00,
2013-08-21 10:03:00,82.6,75.0,29.98,NNE,18,4.0,5.0,77,0.00,,,0.15,789,weatherlink.com 1.10,2013-08-21 20:03:00,
2013-08-21 10:18:00,82.5,74.0,29.97,North,355,3.0,5.0,75,0.00,,,0.15,823,weatherlink.com 1.10,2013-08-21 20:18:00,
2013-08-21 10:34:00,84.4,75.0,29.97,NNE,31,2.0,6.0,73,0.00,,,0.15,856,weatherlink.com 1.10,2013-08-21 20:34:00,
2013-08-21 10:49:00,85.0,76.0,29.97,East,82,2.0,6.0,75,0.00,,,0.15,889,weatherlink.com 1.10,2013-08-21 20:49:00,
2013-08-21 11:04:00,84.2,76.0,29.96,ENE,72,1.0,6.0,76,0.00,,,0.15,912,weatherlink.com 1.10,2013-08-21 21:04:00,
2013-08-21 11:18:00,85.3,74.0,29.96,East,99,4.0,9.0,69,0.00,,,0.15,939,weatherlink.com 1.10,2013-08-21 21:18:00,
2013-08-21 11:34:00,85.4,76.0,29.96,East,88,7.0,8.0,73,0.00,,,0.15,953,weatherlink.com 1.10,2013-08-21 21:34:00,
2013-08-21 11:49:00,85.2,74.0,29.96,ESE,107,6.0,9.0,70,0.00,,,0.15,969,weatherlink.com 1.10,2013-08-21 21:49:00,
2013-08-21 12:04:00,85.0,74.0,29.95,SE,133,5.0,7.0,70,0.00,,,0.15,977,weatherlink.com 1.10,2013-08-21 22:04:00,
2013-08-21 12:19:00,85.9,75.0,29.95,East,91,7.0,8.0,70,0.00,,,0.15,998,weatherlink.com 1.10,2013-08-21 22:19:00,
2013-08-21 12:34:00,85.7,75.0,29.94,SE,134,4.0,7.0,71,0.00,,,0.15,981,weatherlink.com 1.10,2013-08-21 22:34:00,
2013-08-21 12:49:00,86.7,75.0,29.94,East,81,4.0,7.0,69,0.00,,,0.15,981,weatherlink.com 1.10,2013-08-21 22:49:00,
2013-08-21 13:04:00,85.7,75.0,29.94,ESE,103,6.0,8.0,71,0.00,,,0.15,970,weatherlink.com 1.10,2013-08-21 23:04:00,
2013-08-21 13:19:00,86.6,75.0,29.93,East,100,6.0,8.0,69,0.00,,,0.15,954,weatherlink.com 1.10,2013-08-21 23:19:00,
2013-08-21 13:35:00,86.5,75.0,29.93,ESE,105,6.0,8.0,68,0.00,,,0.15,935,weatherlink.com 1.10,2013-08-21 23:35:00,
2013-08-21 13:50:00,85.0,73.0,29.93,East,90,4.0,9.0,68,0.00,,,0.15,919,weatherlink.com 1.10,2013-08-21 23:50:00,
2013-08-21 14:05:00,85.1,74.0,29.92,ENE,70,5.0,8.0,70,0.00,,,0.15,902,weatherlink.com 1.10,2013-08-22 00:05:00,
2013-08-21 14:20:00,85.6,74.0,29.92,ENE,78,5.0,8.0,68,0.00,,,0.15,867,weatherlink.com 1.10,2013-08-22 00:20:00,
2013-08-21 14:35:00,84.8,74.0,29.91,East,81,6.0,9.0,71,0.00,,,0.15,835,weatherlink.com 1.10,2013-08-22 00:35:00,
2013-08-21 14:50:00,85.2,74.0,29.91,East,95,4.0,8.0,68,0.00,,,0.15,796,weatherlink.com 1.10,2013-08-22 00:50:00,
2013-08-21 15:05:00,84.9,74.0,29.91,East,87,3.0,9.0,69,0.00,,,0.15,759,weatherlink.com 1.10,2013-08-22 01:05:00,
2013-08-21 15:20:00,85.4,75.0,29.91,East,82,5.0,9.0,72,0.00,,,0.15,715,weatherlink.com 1.10,2013-08-22 01:20:00,
2013-08-21 15:35:00,84.7,74.0,29.91,ENE,78,4.0,8.0,71,0.00,,,0.15,668,weatherlink.com 1.10,2013-08-22 01:35:00,
2013-08-21 15:50:00,84.6,76.0,29.91,East,86,4.0,10.0,74,0.00,,,0.15,621,weatherlink.com 1.10,2013-08-22 01:50:00,
2013-08-21 16:05:00,83.8,75.0,29.90,East,88,6.0,8.0,74,0.00,,,0.15,570,weatherlink.com 1.10,2013-08-22 02:05:00,
2013-08-21 16:20:00,83.5,75.0,29.90,East,83,3.0,9.0,76,0.00,,,0.15,513,weatherlink.com 1.10,2013-08-22 02:20:00,
2013-08-21 16:36:00,83.0,74.0,29.91,ENE,77,4.0,8.0,73,0.00,,,0.15,457,weatherlink.com 1.10,2013-08-22 02:36:00,
2013-08-21 16:51:00,82.8,73.0,29.91,East,84,4.0,8.0,73,0.00,,,0.15,399,weatherlink.com 1.10,2013-08-22 02:51:00,
2013-08-21 17:06:00,82.3,73.0,29.91,East,81,5.0,8.0,73,0.00,,,0.15,341,weatherlink.com 1.10,2013-08-22 03:06:00,
2013-08-21 17:21:00,81.9,73.0,29.91,East,98,3.0,7.0,74,0.00,,,0.15,278,weatherlink.com 1.10,2013-08-22 03:21:00,
2013-08-21 17:36:00,81.0,72.0,29.91,ENE,78,3.0,7.0,75,0.00,,,0.15,227,weatherlink.com 1.10,2013-08-22 03:36:00,
2013-08-21 17:51:00,80.5,73.0,29.91,SE,124,1.0,7.0,77,0.00,,,0.15,134,weatherlink.com 1.10,2013-08-22 03:51:00,
2013-08-21 18:06:00,80.0,73.0,29.91,ESE,114,3.0,6.0,78,0.00,,,0.15,30,weatherlink.com 1.10,2013-08-22 04:06:00,
2013-08-21 18:21:00,79.7,73.0,29.92,ESE,103,2.0,5.0,79,0.00,,,0.15,25,weatherlink.com 1.10,2013-08-22 04:21:00,
2013-08-21 18:36:00,79.4,73.0,29.93,East,101,4.0,6.0,80,0.00,,,0.15,14,weatherlink.com 1.10,2013-08-22 04:36:00,
2013-08-21 18:51:00,79.0,73.0,29.93,ESE,102,4.0,8.0,81,0.00,,,0.15,5,weatherlink.com 1.10,2013-08-22 04:51:00,
2013-08-21 19:06:00,78.7,73.0,29.93,ESE,104,4.0,6.0,82,0.00,,,0.15,0,weatherlink.com 1.10,2013-08-22 05:06:00,
2013-08-21 19:21:00,78.7,73.0,29.94,East,86,3.0,6.0,82,0.00,,,0.15,0,weatherlink.com 1.10,2013-08-22 05:21:00,
2013-08-21 19:36:00,78.7,73.0,29.94,East,95,4.0,6.0,83,0.00,,,0.15,0,weatherlink.com 1.10,2013-08-22 05:36:00,
2013-08-21 19:52:00,78.6,73.0,29.94,East,88,5.0,7.0,83,0.00,,,0.15,0,weatherlink.com 1.10,2013-08-22 05:52:00,
2013-08-21 20:08:00,78.5,73.0,29.95,East,79,6.0,7.0,84,0.00,,,0.15,0,weatherlink.com 1.10,2013-08-22 06:08:00,
2013-08-21 20:23:00,78.4,73.0,29.95,ESE,102,6.0,8.0,83,0.00,,,0.15,0,weatherlink.com 1.10,2013-08-22 06:23:00,
2013-08-21 20:38:00,78.2,73.0,29.96,ESE,105,4.0,8.0,83,0.00,,,0.15,0,weatherlink.com 1.10,2013-08-22 06:38:00,
2013-08-21 20:53:00,78.2,73.0,29.96,East,94,2.0,8.0,83,0.00,,,0.15,0,weatherlink.com 1.10,2013-08-22 06:53:00,
2013-08-21 21:08:00,78.2,73.0,29.97,ESE,119,3.0,9.0,84,0.00,,,0.15,0,weatherlink.com 1.10,2013-08-22 07:08:00,
2013-08-21 21:21:00,78.0,73.0,29.97,ESE,105,3.0,8.0,84,0.00,,,0.15,0,weatherlink.com 1.10,2013-08-22 07:21:00,
2013-08-21 21:38:00,78.2,73.0,29.97,ENE,76,2.0,7.0,84,0.00,,,0.15,0,weatherlink.com 1.10,2013-08-22 07:38:00,
2013-08-21 21:53:00,78.1,73.0,29.98,SE,129,1.0,8.0,83,0.00,,,0.15,0,weatherlink.com 1.10,2013-08-22 07:53:00,
2013-08-21 22:08:00,78.1,73.0,29.98,ESE,114,2.0,8.0,83,0.00,,,0.15,0,weatherlink.com 1.10,2013-08-22 08:08:00,
2013-08-21 22:23:00,78.0,73.0,29.98,East,98,4.0,6.0,83,0.00,,,0.15,0,weatherlink.com 1.10,2013-08-22 08:23:00,
2013-08-21 22:38:00,78.1,73.0,29.98,ESE,114,7.0,7.0,83,0.00,,,0.15,0,weatherlink.com 1.10,2013-08-22 08:38:00,
2013-08-21 22:53:00,78.1,73.0,29.98,East,84,1.0,7.0,83,0.00,,,0.15,0,weatherlink.com 1.10,2013-08-22 08:53:00,
2013-08-21 23:08:00,78.1,73.0,29.98,East,95,1.0,8.0,84,0.00,,,0.15,0,weatherlink.com 1.10,2013-08-22 09:08:00,
2013-08-21 23:23:00,77.8,73.0,29.97,East,82,3.0,8.0,85,0.00,,,0.15,0,weatherlink.com 1.10,2013-08-22 09:23:00,
2013-08-21 23:38:00,77.7,73.0,29.97,ENE,78,1.0,7.0,85,0.00,,,0.15,0,weatherlink.com 1.10,2013-08-22 09:38:00,
2013-08-21 23:53:00,77.8,73.0,29.97,ENE,78,2.0,6.0,86,0.00,,,0.15,0,weatherlink.com 1.10,2013-08-22 09:53:00,